AMQ2034 EPGD-HEGN

Flight info

Callsign AMQ2034
Flight time N/A
Altitude 38000
Route IRLUN N133 LENOV DCT KEKED DCT PERIT DCT NARKA DCT LOMOS DCT NIKTI UN127 IMR UN128 RDS UL995 VANZA DCT RASDA A16 CVO L315 SOKOT SOKOT1A
Aircraft A320/M-SDE3FGHIRWY/LB1

Departure

Time N/A
Airport Gdańsk Lech Wałęsa Airport (EPGD)

Arrival

Time 2026-04-30 20:53
Airport Hurghada International Airport (HEGN)
Time Latitude Longitude Altitude Speed Heading
2026-04-30 20:26 28.89823 32.39536 38027 ft 487 kts 150°
2026-04-30 20:26 28.87083 32.41811 38005 ft 487 kts 150°
2026-04-30 20:27 28.76123 32.50901 38022 ft 487 kts 150°
2026-04-30 20:28 28.65200 32.59949 38027 ft 487 kts 150°
2026-04-30 20:30 28.51517 32.71225 38020 ft 485 kts 150°
2026-04-30 20:30 28.43328 32.77961 36824 ft 484 kts 151°
2026-04-30 20:31 28.35136 32.84685 34973 ft 483 kts 152°
2026-04-30 20:32 28.26969 32.91377 33175 ft 481 kts 152°
2026-04-30 20:32 28.21559 32.95811 32025 ft 477 kts 151°
2026-04-30 20:33 28.18870 32.98013 31460 ft 476 kts 150°
2026-04-30 20:33 28.13507 33.02397 30341 ft 474 kts 149°
2026-04-30 20:33 28.10831 33.04574 29753 ft 473 kts 149°
2026-04-30 20:34 28.05537 33.08876 28695 ft 465 kts 149°
2026-04-30 20:34 28.00334 33.13116 27700 ft 457 kts 149°
2026-04-30 20:35 27.97769 33.15205 27232 ft 452 kts 149°
2026-04-30 20:35 27.95226 33.17275 26734 ft 448 kts 148°
2026-04-30 20:35 27.90199 33.21364 25753 ft 442 kts 148°
2026-04-30 20:36 27.87709 33.23384 25300 ft 438 kts 148°
2026-04-30 20:36 27.85243 33.25387 24795 ft 437 kts 148°
2026-04-30 20:36 27.80386 33.29330 24017 ft 426 kts 148°
2026-04-30 20:37 27.77987 33.31272 23590 ft 421 kts 148°
2026-04-30 20:37 27.75625 33.33179 22728 ft 415 kts 148°
2026-04-30 20:37 27.73308 33.35050 22143 ft 403 kts 148°
2026-04-30 20:37 27.71074 33.36860 21686 ft 388 kts 148°
2026-04-30 20:38 27.68944 33.38585 21237 ft 376 kts 148°
2026-04-30 20:38 27.66844 33.40284 20803 ft 370 kts 148°
2026-04-30 20:38 27.64729 33.41988 20366 ft 369 kts 148°
2026-04-30 20:39 27.60573 33.45327 19508 ft 369 kts 148°
2026-04-30 20:39 27.58480 33.47006 19077 ft 369 kts 148°
2026-04-30 20:39 27.56387 33.48687 18639 ft 370 kts 148°
2026-04-30 20:40 27.52178 33.52037 17737 ft 369 kts 152°
2026-04-30 20:40 27.49908 33.53313 17321 ft 363 kts 161°
2026-04-30 20:40 27.47595 33.54432 16905 ft 361 kts 160°
2026-04-30 20:41 27.43010 33.56669 16088 ft 357 kts 160°
2026-04-30 20:41 27.40734 33.57780 15682 ft 355 kts 160°
2026-04-30 20:41 27.38471 33.58884 15287 ft 353 kts 159°
2026-04-30 20:41 27.36219 33.59978 14900 ft 352 kts 160°
2026-04-30 20:42 27.33908 33.60805 14537 ft 346 kts 168°
2026-04-30 20:42 27.31584 33.61488 14155 ft 344 kts 168°
2026-04-30 20:42 27.26998 33.62848 13362 ft 339 kts 167°
2026-04-30 20:43 27.24719 33.63528 12941 ft 337 kts 167°
2026-04-30 20:43 27.22450 33.64205 12480 ft 337 kts 167°
2026-04-30 20:43 27.20194 33.64875 12074 ft 334 kts 167°
2026-04-30 20:44 27.15725 33.66196 11253 ft 331 kts 167°
2026-04-30 20:44 27.13505 33.66854 10844 ft 329 kts 167°
2026-04-30 20:44 27.09084 33.68166 10006 ft 328 kts 167°
2026-04-30 20:45 27.04683 33.69472 9087 ft 326 kts 167°
2026-04-30 20:45 27.02499 33.70117 8632 ft 324 kts 167°
2026-04-30 20:45 27.00327 33.70757 8195 ft 322 kts 167°
2026-04-30 20:46 26.93894 33.72788 6663 ft 325 kts 153°
2026-04-30 20:46 26.92186 33.74453 5843 ft 329 kts 123°
2026-04-30 20:47 26.91889 33.78993 5147 ft 276 kts 60°
2026-04-30 20:47 26.92987 33.80702 4471 ft 268 kts 39°
2026-04-30 20:48 26.95757 33.83250 3585 ft 246 kts 36°
2026-04-30 20:48 26.97098 33.84344 3260 ft 231 kts 22°
2026-04-30 20:48 26.98593 33.84690 2974 ft 213 kts 354°
2026-04-30 20:48 26.99997 33.84356 2819 ft 202 kts 342°
2026-04-30 20:49 27.01330 33.83964 2649 ft 194 kts 342°
2026-04-30 20:49 27.02597 33.83593 2463 ft 185 kts 342°
2026-04-30 20:49 27.03818 33.83235 2351 ft 173 kts 342°
2026-04-30 20:50 27.05910 33.82627 2040 ft 138 kts 341°
2026-04-30 20:50 27.06813 33.82361 1879 ft 132 kts 341°
2026-04-30 20:50 27.07697 33.82099 1714 ft 131 kts 342°
2026-04-30 20:50 27.08574 33.81841 1549 ft 131 kts 341°
2026-04-30 20:51 27.09459 33.81581 1387 ft 132 kts 343°
2026-04-30 20:51 27.11261 33.81037 1091 ft 135 kts 342°
2026-04-30 20:51 27.12172 33.80767 878 ft 136 kts 344°
2026-04-30 20:52 27.13080 33.80505 681 ft 135 kts 342°
2026-04-30 20:52 27.13991 33.80246 536 ft 134 kts 341°
2026-04-30 20:52 27.15800 33.79712 157 ft 136 kts 343°
2026-04-30 20:53 27.16678 33.79452 55 ft 117 kts 344°
2026-04-30 20:53 27.17307 33.79267 55 ft 69 kts 345°
2026-04-30 20:53 27.17659 33.79163 56 ft 45 kts 348°
2026-04-30 20:54 27.17959 33.79239 61 ft 11 kts 95°
2026-04-30 20:54 27.17907 33.79290 54 ft 10 kts 165°
2026-04-30 20:54 27.17773 33.79328 57 ft 31 kts 165°
2026-04-30 20:55 27.17292 33.79470 57 ft 29 kts 165°
2026-04-30 20:55 27.17242 33.79561 59 ft 12 kts 83°
2026-04-30 20:55 27.17269 33.79681 61 ft 19 kts 74°
2026-04-30 20:56 27.17372 33.80116 62 ft 38 kts 76°
2026-04-30 20:56 27.17449 33.80311 61 ft 21 kts 66°
2026-04-30 20:56 27.17578 33.80351 60 ft 12 kts 344°
2026-04-30 20:57 27.17667 33.80323 57 ft 14 kts 346°
2026-04-30 20:57 27.17772 33.80293 60 ft 17 kts 345°
2026-04-30 20:57 27.17892 33.80255 58 ft 19 kts 344°
2026-04-30 20:58 27.18173 33.80175 56 ft 23 kts 344°
2026-04-30 20:58 27.18329 33.80128 56 ft 24 kts 345°
2026-04-30 20:58 27.18498 33.80078 54 ft 26 kts 347°
2026-04-30 20:58 27.18563 33.80128 58 ft 10 kts 75°
2026-04-30 20:59 27.18626 33.80376 57 ft 11 kts 53°
2026-04-30 20:59 27.18694 33.80373 60 ft 10 kts 342°
2026-04-30 21:00 27.18777 33.80348 61 ft 1 kts 345°
2026-04-30 21:00 27.18819 33.80409 58 ft 0 kts 75°